Regional Weather Roundup
Issued by NWS Charleston, SC

Current Version | Previous Version | Graphics & Text | Print | Product List | Glossary On
Versions: 1 2 3 4 5 6 7 8 9 10 11 12 13 14 15 16 17 18 19 20 21 22 23 24 25 26 27 28 29 30 31 32 33 34 35 36 37 38 39 40 41 42 43 44 45 46 47 48 49 50
000 ASUS42 KCHS 171625 RWRCHS REGIONAL WEATHER ROUNDUP NATIONAL WEATHER SERVICE CHARLESTON SC 1200 PM EDT WED SEP 17 2014 NOTE: "FAIR" INDICATES FEW OR NO CLOUDS BELOW 12,000 FEET WITH NO SIGNIFICANT WEATHER AND/OR OBSTRUCTIONS TO VISIBILITY. NOT ALL STATIONS ARE QUALITY CONTROLLED BY THE NATIONAL WEATHER SERVICE. USE DATA WITH CAUTION...ESPECIALLY DEWPOINT OBSERVATIONS. SCZ027-030-031-034>040-042>050-171700- ...SOUTH CAROLINA... CITY SKY/WX TMP DP RH WIND PRES REMARKS N CHARLESTON PTSUNNY 83 71 67 E6 29.93S WATERFRONT PRK N/A 81 N/A N/A E8 N/A FORT JOHNSON NOT AVBL MOUNT PLEASANT DRIZZLE 81 72 74 E7 29.93S JOHNS ISLAND MOSUNNY 82 82 100 NE8 29.92F HX 97 PINOPOLIS N/A 79 70 73 NE7 29.87F MONCKS CORNER N/A 82 73 74 E3 29.93F SUMMERVILLE PTSUNNY 81 73 78 N6 29.93F BEAUFORT MCAS PTSUNNY 84 74 71 CALM 29.93F HX 91 BEAUFORT ARPT FAIR 82 73 74 NE5 29.91F HILTON HEAD IS MOSUNNY 81 72 74 NE6 29.93F GEORGETOWN NOT AVBL WALTERBORO MOSUNNY 81 72 74 CALM 29.93F ORANGEBURG PTSUNNY 79 68 69 NE3 29.94F BARNWELL FAIR 82 72 69 CALM 29.94F AIKEN CLOUDY 72 72 100 CALM 29.98F MANNING CLOUDY 79 70 73 NE5 29.94F KINGSTREE NOT AVBL COLUMBIA PTSUNNY 81 66 60 E3 29.93F SUMTER CLOUDY 73 64 73 NE8 29.95S FLORENCE CLOUDY 74 65 73 N6 29.95F MYRTLE BEACH SUNNY 81 66 61 N7 29.94S N MYRTLE BEACH SUNNY 81 66 60 CALM 29.93S $$ GAZ063-065-086>088-099>101-113>116-118-119-134-136>141-150-171700- ...GEORGIA... CITY SKY/WX TMP DP RH WIND PRES REMARKS SAVANNAH ARPT MOSUNNY 84 71 65 S5 29.93F HUNTER AAF SUNNY 82 73 72 VRB2 29.91F FORT STEWART SUNNY 83 71 65 CALM 29.92F STATESBORO NOT AVBL SYLVANIA SUNNY 83 74 75 CALM 29.94F CLAXTON FAIR 82 77 83 CALM 29.93F HX 91 THOMSON MOSUNNY 80 76 87 CALM 29.98F AUGUSTA-BUSH MOSUNNY 78 69 73 CALM 29.93F AUGUSTA-DANIEL MOSUNNY 80 70 71 CALM 29.95F SWAINSBORO FAIR 86 72 62 CALM 29.94F HX 92 VIDALIA SUNNY 86 70 58 NW5 29.94S HX 90 ALMA SUNNY 85 71 63 E5 29.93F HX 90 WAYCROSS SUNNY 87 76 70 E3 29.93F HX 97 JESUP FAIR 90 75 62 CALM 29.93S HX 100 BRUNSWICK SUNNY 86 70 58 CALM 29.93F HX 90 SAINT SIMONS SUNNY 84 69 60 CALM 29.92F $$ SCZ027-028-034-036>038-045-046-048>050-GAZ119-141-171700- ...LAKE AND SUPPLEMENTAL COASTAL OBSERVATIONS... STATION/POSITION TIME TEMP WIND PRES WAVE SWELL AIR SEA DIR/SP/G HT/PER HT/PER/DIR (UTC) (F) (DEG/KT/KT) (MB) (FT/S) (FT/S/D) UPR LAKE MARION NOT AVBL WINYAH BAY 1500 74 60/ 8 1014.0S LAKE MURRAY 1500 74 40/ 2/ 4 1013.9F ACE BASIN NERRS 1500 80 CALM 1014.0R FORT PULASKI 1600 80 100/ 3/ 5 1013.5F SAPELO ISLAND 1500 82 20/ 5 1014.0S $$ ANZ835-935-AMZ111-154-330-350-352-354-374-450-454-472-171700- ...C-MAN AND BUOY OBSERVATIONS... STATION/POSITION TIME TEMP WIND PRES WAVE SWELL AIR SEA DIR/SP/G HT/PER HT/PER/DIR (UTC) (F) (DEG/KT/KT) (MB) (FT/S) (FT/S/D) FOLLY BEACH CMAN 1600 81 80/ 10/ 11 1013.9S BUOY 41004 1600 78 83 30/ 17/ 19 1012.7F 4/15 2/15 BUOY 41008 1600 80 84 30/ 4/ 6 1013.2F 2/12 2/ 40/12 5E ST. MARYS GA 1600 84 N/A 2/14 2/100/14 FRYING PAN BUOY NOT AVBL BUOY 41025 1600 73 70/ 16/ 19 1014.2R 5/13 3/110/13 CAPE LOOKOUT NC 1600 77 150/ 10/ 11 1013.1F BUOY 41002 1550 75 82 360/ 6/ 8 1012.7R 7/14 7/ 90/14 BUOY 41010 1600 79 85 290/ 16/ 19 1013.2S 5/15 3/150/15 BUOY 41012 NOT AVBL ST AUGUSTINE FL 1600 79 30/ 5/ 6 1014.3S CAPERS NEARSHORE 1500 78 50/ 12/ 14 N/A FRIPP NEARSHORE NOT AVBL $$

USA.gov is the U.S. government's official web portal to all federal, state and local government web resources and services.